0 HST 1 20580U 90037B 26063.13533951 .00010319 00000-0 34382-3 0 9998 2 20580 28.4703 77.8870 0001725 70.3509 289.7272 15.29378725772469 0 ISS (ZARYA) 1 25544U 98067A 26063.15679535 .00010207 00000-0 19684-3 0 9999 2 25544 51.6316 99.7104 0008201 155.0339 205.1047 15.48434477555473 0 CXO 1 25867U 99040B 26063.59985680 .00000824 00000-0 00000-0 0 9991 2 25867 54.4843 119.7682 8003286 310.7757 0.4217 0.37808937 16926